Regional Weather Roundup
Issued by NWS Midland/Odessa, TX

Home | Current Version | Previous Version | Text Only | Print | Product List | Glossary On
Versions: 1 2 3 4 5 6 7 8 9 10 11 12 13 14 15 16 17 18 19 20 21 22 23 24 25 26 27 28 29 30 31 32 33 34 35 36 37 38 39 40 41 42 43 44 45 46 47 48 49 50
607
ASUS44 KMAF 280010
RWRMAF
MIDLAND AREA WEATHER ROUNDUP
NATIONAL WEATHER SERVICE MIDLAND TX
700 PM CDT FRI MAY 27 2016

...IN SOUTHWEST TEXAS AND SOUTHEAST NEW MEXICO...

CITY           SKY/WX    TMP DP  RH WIND       PRES   REMARKS
ALPINE         SUNNY     82  12   7 SW16      29.94F
ANDREWS        FAIR      85  22   9 W7        29.77S
ARTESIA        SUNNY     86  21   9 NW8       29.76S
BIG SPRING     SUNNY     84  29  13 W15       29.76S
CARLSBAD       SUNNY     86  16   7 W14G26    29.75R
DRYDEN           N/A     93  16   6 W13G23    29.72R
FORT STOCKTON  SUNNY     89  16   7 NW13G20   29.77S
GUAD PASS      NOT AVBL
HOBBS          SUNNY     82  18   9 SW15G21   29.80S
MARFA          SUNNY     79  13   8 W15       29.93S
MIDLAND AIRPK  SUNNY     89  16   7 W12       29.75F
MIDLAND INTL   SUNNY     90  14   6 W17G26    29.75S
ODESSA         SUNNY     88  12   6 W16G26    29.76F
PECOS          SUNNY     89  15   6 W13       29.75F
PRESIDIO       FAIR      91   6   4 W5        29.77F
SEMINOLE       SUNNY     84  24  10 W7        29.78S
SNYDER           N/A     86  34  15 W15G22    29.73F
WINK           SUNNY     88  14   6 W17G25    29.74S
$$
...OTHER STATIONS IN TEXAS...

CITY           SKY/WX    TMP DP  RH WIND       PRES   REMARKS
ABILENE        SUNNY     85  44  23 SW8       29.71S
AMARILLO       SUNNY     76  36  23 NW7       29.77S
AUSTIN         MOSUNNY   75  68  78 NE10      29.71S
BROWNSVILLE    CLOUDY    85  75  72 S17       29.68R
CORPUS CHRISTI MOSUNNY   86  78  77 S21G30    29.60F
DALLAS FTW     CLOUDY    79  60  52 S16       29.71F
DEL RIO        SUNNY     96  27   8 N6        29.64F
EL PASO        SUNNY     83  15   8 W22G28    29.84F
HOUSTON INT    TSTM      66  64  93 E15       29.78R
LUBBOCK        MOSUNNY   83  30  14 W15G22    29.73S
SAN ANGELO     SUNNY     87  40  19 W9        29.71S
SAN ANTONIO    MOSUNNY   80  68  66 NE12      29.70R
WACO           SUNNY     75  63  66 E13       29.74S
WICHITA FALLS  NOT AVBL
$$
...OTHER LOCATIONS IN NEW MEXICO...

CITY           SKY/WX    TMP DP  RH WIND       PRES   REMARKS
ALAMAGORDO     SUNNY     81  19  10 SW7       29.84F
ALBUQUERQUE    PTSUNNY   73  21  14 W17       29.86S
CANNON AFB     SUNNY     78  29  16 NW9       29.79S
CLOVIS         SUNNY     77  30  18 NW9       29.79F
HOLLOMAN AFB   SUNNY     82  18   9 SW9       29.82F
ROSWELL        SUNNY     83  21  10 CALM      29.76S
RUIDOSO          N/A     68  18  14 W14G23    29.98F
SANTA FE       MOSUNNY   70  19  14 W20G29    29.88R
TRUTH OR CONSE MOSUNNY   79  19  10 VRB3      29.83S
TUCUMCARI      SUNNY     77  29  17 S7        29.75S
$$




USA.gov is the U.S. government's official web portal to all federal, state and local government web resources and services.